{"data":{"norad_id":65336,"intl_designator":"2025-189P","name":"STARLINK-34835","alt_names":[],"object_type":"PAYLOAD","status":"ACTIVE","operator":null,"country":"US","launch_date":"2025-08-27","launch_site_code":"AFETR","launch_vehicle":null,"mission":null,"orbit_class":"UNKNOWN","rcs_meters":null,"size_class":null,"mass_kg":null,"dimensions":null,"purposes":["comms"],"wikipedia_slug":null,"has_3d_model":false,"image_url":null,"decayed_at":null,"tle_current":{"epoch":"2026-09-20T11:53:10.317984Z","epoch_age_seconds":117996,"freshness":"FRESH","line1":"1 65336U 25189P   26263.49525831  .00029196  00000+0  87198-3 0  9996","line2":"2 65336  53.1583  19.6768 0001081  83.3415 276.7710 15.34396533 60964","mean_motion":15.34396533,"eccentricity":0.0001081,"inclination_deg":53.1583,"raan_deg":19.6768,"arg_perigee_deg":83.3415,"mean_anomaly_deg":276.771,"bstar":0.00087198,"rev_number":6096,"period_min":93.847970132242,"perigee_km":461.97404893724,"apogee_km":463.45304082505,"semimajor_km":6840.8505448811,"source":"CELESTRAK","updated_at":"2026-09-21T09:00:35.571531Z"}}}